User: anonymous   Login
Location: Unspecified
(0.0000°N, 0.0000°E)
Time: 09:18:09
(UTC+00:00)
Language:

Diapason D-1A - Orbit

View from above orbital plane
View from above orbital plane
View from above satellite
View from above satellite

Ground track
Ground track

The orbit data is extracted from the following two-line orbital elements,

1  2016U 66013A   17086.44326845 +.00000069 +00000-0 +24699-4 0  9992
2  2016 034.0888 111.2792 1188247 125.8957 245.7907 12.59487554315017
Epoch (UTC): 27 March 2017 10:38:18
Eccentricity: 0.1188247
inclination: 34.0888°
perigee height: 498 km
apogee height: 2352 km
right ascension of ascending node: 111.2792°
argument of perigee: 125.8957°
revolutions per day: 12.59487554
mean anomaly at epoch: 245.7907°
orbit number at epoch: 31501

The dashed part of the orbit path shows where the satellite is in the earth's shadow,  

DLR